Weather History for Kristianstad, Sweden

Change the Weather History Date:

Friday, March 8, 2013

  Actual Average Record
Temperature  
Mean Temperature 32 °F -  
Max Temperature 35 °F - - ()
Min Temperature 30 °F - - ()
Degree Days  
Heating Degree Days 32    
Moisture  
Dew Point 24 °F    
Average Humidity 69    
Maximum Humidity 75    
Minimum Humidity 60    
Precipitation  
Precipitation 0.00 in - - ()
Sea Level Pressure  
Sea Level Pressure 30.05 in    
Wind  
Wind Speed 18 mph ()    
Max Wind Speed 25 mph    
Max Gust Speed 34 mph    
Visibility 6.2 miles    
Events      
T = Trace of Precipitation, MM = Missing Value Source: Averaged Metar Reports

Daily Weather History Graph

Daily Weather History Graph

Search for Another Location

Airport:

Trip Planner

Search our weather history database for the weather conditions in past years. The results will help you decide how hot, cold, wet, or windy it might be!

Date:

Astronomy

Mar. 08, 2013 Rise Set
Actual Time 6:37 AM CET 5:52 PM CET
Civil Twilight 6:00 AM CET 6:29 PM CET
Nautical Twilight 5:17 AM CET 7:12 PM CET
Astronomical Twilight 4:33 AM CET 7:57 PM CET
Moon 4:42 AM CET (3/8) 1:58 PM CET (3/8)
Length of Visible Light 12h 29m
Length of Day
11h 15m
Waning Crescent, 14% of the Moon is Illuminated
Mar 8
Waning Crescent
Mar 11
New
Mar 19
First Quarter
Mar 27
Full
Apr 3
Last Quarter

Hourly Weather History & Observations

Time (CET) Temp. Windchill Dew Point Humidity Pressure Visibility Wind Dir Wind Speed Gust Speed Precip Events Conditions
12:20 AM 32.0 °F 20.8 °F 24.8 °F 75% 30.06 in 6.2 mi East 17.3 mph - N/A   Mostly Cloudy
12:50 AM 33.8 °F 23.2 °F 24.8 °F 70% 30.06 in 6.2 mi East 17.3 mph - N/A   Scattered Clouds
1:20 AM 33.8 °F 22.2 °F 23.0 °F 65% 30.06 in 6.2 mi East 20.7 mph - N/A   Partly Cloudy
1:50 AM 33.8 °F 23.2 °F 24.8 °F 70% 30.06 in 6.2 mi East 17.3 mph - N/A   Partly Cloudy
2:20 AM 33.8 °F 22.5 °F 24.8 °F 70% 30.06 in 6.2 mi East 19.6 mph - N/A   Unknown
2:50 AM 33.8 °F 22.5 °F 24.8 °F 70% 30.06 in 6.2 mi East 19.6 mph - N/A   Partly Cloudy
3:20 AM 33.8 °F 22.5 °F 24.8 °F 70% 30.06 in 6.2 mi East 19.6 mph - N/A   Partly Cloudy
3:50 AM 33.8 °F 22.5 °F 24.8 °F 70% 30.06 in 6.2 mi East 19.6 mph - N/A   Scattered Clouds
4:20 AM 33.8 °F 23.5 °F 23.0 °F 65% 30.06 in 6.2 mi East 16.1 mph - N/A   Partly Cloudy
4:50 AM 32.0 °F 20.1 °F 23.0 °F 69% 30.06 in 6.2 mi East 19.6 mph - N/A   Unknown
5:20 AM 33.8 °F 22.5 °F 23.0 °F 65% 30.06 in 6.2 mi East 19.6 mph - N/A   Scattered Clouds
5:50 AM 32.0 °F 20.5 °F 23.0 °F 69% 30.06 in 6.2 mi East 18.4 mph - N/A   Partly Cloudy
6:20 AM 32.0 °F 20.5 °F 23.0 °F 69% 30.06 in 6.2 mi East 18.4 mph - N/A   Scattered Clouds
6:50 AM 32.0 °F 19.8 °F 24.8 °F 75% 30.06 in 6.2 mi East 20.7 mph - N/A   Scattered Clouds
7:20 AM 32.0 °F 20.5 °F 24.8 °F 75% 30.06 in 6.2 mi East 18.4 mph - N/A   Partly Cloudy
7:50 AM 33.8 °F 22.5 °F 24.8 °F 70% 30.06 in 6.2 mi East 19.6 mph - N/A   Partly Cloudy
8:20 AM 33.8 °F 23.5 °F 24.8 °F 70% 30.06 in 6.2 mi East 16.1 mph 27.6 mph N/A   Partly Cloudy
8:50 AM 33.8 °F 21.9 °F 24.8 °F 70% 30.06 in 6.2 mi East 21.9 mph - N/A   Partly Cloudy
9:20 AM 33.8 °F 21.9 °F 24.8 °F 70% 30.06 in 6.2 mi East 21.9 mph - N/A   Partly Cloudy
9:50 AM 33.8 °F 22.2 °F 24.8 °F 70% 30.06 in - East 20.7 mph - N/A   Clear
10:20 AM 33.8 °F 21.9 °F 23.0 °F 65% 30.06 in - East 21.9 mph - N/A   Clear
10:50 AM 33.8 °F 21.9 °F 23.0 °F 65% 30.06 in - East 21.9 mph 33.4 mph N/A   Clear
11:20 AM 33.8 °F 22.2 °F 23.0 °F 65% 30.06 in - East 20.7 mph 33.4 mph N/A   Clear
11:50 AM 35.6 °F 24.2 °F 23.0 °F 60% 30.06 in - East 21.9 mph - N/A   Clear
12:20 PM 35.6 °F 24.2 °F 24.8 °F 65% 30.06 in - East 21.9 mph - N/A   Clear
12:50 PM 35.6 °F 23.7 °F 24.8 °F 65% 30.06 in 6.2 mi East 24.2 mph - N/A   Partly Cloudy
1:20 PM 35.6 °F 23.4 °F 24.8 °F 65% 30.06 in - East 25.3 mph - N/A   Clear
1:50 PM 35.6 °F 24.0 °F 24.8 °F 65% 30.04 in - East 23.0 mph - N/A   Clear
2:20 PM 35.6 °F 24.5 °F 24.8 °F 65% 30.04 in - East 20.7 mph 34.5 mph N/A   Clear
2:50 PM 35.6 °F 24.0 °F 23.0 °F 60% 30.04 in - East 23.0 mph - N/A   Clear
3:20 PM 33.8 °F 21.6 °F 23.0 °F 65% 30.04 in - East 23.0 mph 34.5 mph N/A   Clear
3:50 PM 33.8 °F 21.6 °F 24.8 °F 70% 30.04 in - East 23.0 mph - N/A   Clear
4:20 PM 33.8 °F 21.0 °F 23.0 °F 65% 30.04 in - East 25.3 mph - N/A   Clear
4:50 PM 32.0 °F 20.1 °F 21.2 °F 64% 30.04 in - East 19.6 mph - N/A   Clear
5:20 PM 32.0 °F 20.5 °F 21.2 °F 64% 30.04 in - East 18.4 mph - N/A   Clear
5:50 PM 32.0 °F 20.8 °F 21.2 °F 64% 30.04 in - East 17.3 mph - N/A   Clear
6:20 PM 32.0 °F 20.8 °F 21.2 °F 64% 30.04 in - East 17.3 mph - N/A   Clear
6:50 PM 32.0 °F 20.8 °F 23.0 °F 69% 30.04 in - East 17.3 mph - N/A   Clear
7:20 PM 32.0 °F 20.8 °F 23.0 °F 69% 30.04 in - East 17.3 mph - N/A   Clear
7:50 PM 30.2 °F 18.5 °F 23.0 °F 75% 30.04 in 6.2 mi East 17.3 mph - N/A   Unknown
8:20 PM 30.2 °F 19.3 °F 23.0 °F 75% 30.04 in 6.2 mi East 15.0 mph - N/A   Scattered Clouds
8:50 PM 30.2 °F 19.3 °F 23.0 °F 75% 30.04 in 6.2 mi East 15.0 mph - N/A   Scattered Clouds
9:20 PM 30.2 °F 19.3 °F 23.0 °F 75% 30.04 in 6.2 mi East 15.0 mph - N/A   Partly Cloudy
9:50 PM 30.2 °F 18.9 °F 23.0 °F 75% 30.04 in 6.2 mi East 16.1 mph - N/A   Partly Cloudy
10:20 PM 30.2 °F 19.8 °F 23.0 °F 75% 30.04 in 6.2 mi East 13.8 mph - N/A   Unknown
10:50 PM 30.2 °F 20.2 °F 23.0 °F 75% 30.04 in 6.2 mi ENE 12.7 mph - N/A   Scattered Clouds
11:20 PM 30.2 °F 20.8 °F 23.0 °F 75% 30.04 in 6.2 mi ENE 11.5 mph - N/A   Scattered Clouds
11:50 PM 30.2 °F 18.9 °F 23.0 °F 75% 30.01 in 6.2 mi East 16.1 mph - N/A   Scattered Clouds